DLH4XV EDDL-EDDF

Flight info

Callsign DLH4XV
Flight time 0h 33m
Altitude 23000
Route COL6T COL T911 ROLIS ROLIS5A
Aircraft A21N/M-SDE2E3FGHIJ1RWXY/LB1

Departure

Time 2026-05-04 07:33
Airport Düsseldorf Airport (EDDL)

Arrival

Time 2026-05-04 08:06
Airport Frankfurt Main Airport (EDDF)
Time Latitude Longitude Altitude Speed Heading
2026-05-04 06:44 51.28048 6.76371 136 ft 0 kts 197°
2026-05-04 07:22 51.28082 6.76390 136 ft 4 kts 217°
2026-05-04 07:22 51.28091 6.76409 136 ft 4 kts 288°
2026-05-04 07:23 51.28078 6.76434 136 ft 4 kts 325°
2026-05-04 07:23 51.28059 6.76455 136 ft 1 kts 327°
2026-05-04 07:23 51.28058 6.76455 136 ft 0 kts 327°
2026-05-04 07:26 51.28128 6.76358 136 ft 8 kts 303°
2026-05-04 07:27 51.28162 6.76280 136 ft 8 kts 314°
2026-05-04 07:27 51.28213 6.76240 134 ft 9 kts
2026-05-04 07:27 51.28268 6.76309 133 ft 11 kts 52°
2026-05-04 07:27 51.28318 6.76418 132 ft 13 kts 53°
2026-05-04 07:28 51.28375 6.76540 131 ft 15 kts 53°
2026-05-04 07:28 51.28441 6.76677 131 ft 16 kts 52°
2026-05-04 07:28 51.28515 6.76832 133 ft 19 kts 52°
2026-05-04 07:28 51.28598 6.77005 135 ft 21 kts 53°
2026-05-04 07:29 51.28680 6.77179 135 ft 19 kts 53°
2026-05-04 07:29 51.28765 6.77357 135 ft 21 kts 53°
2026-05-04 07:29 51.28856 6.77549 135 ft 23 kts 53°
2026-05-04 07:29 51.28934 6.77713 135 ft 18 kts 52°
2026-05-04 07:30 51.29014 6.77880 136 ft 20 kts 52°
2026-05-04 07:30 51.29102 6.78064 138 ft 22 kts 52°
2026-05-04 07:30 51.29183 6.78233 143 ft 13 kts 52°
2026-05-04 07:30 51.29262 6.78334 147 ft 16 kts 33°
2026-05-04 07:31 51.29357 6.78437 152 ft 17 kts 35°
2026-05-04 07:31 51.29434 6.78475 155 ft 9 kts 353°
2026-05-04 07:33 51.27245 6.73674 1383 ft 138 kts 231°
2026-05-04 07:33 51.26640 6.72398 1656 ft 154 kts 233°
2026-05-04 07:33 51.25939 6.70862 2029 ft 187 kts 233°
2026-05-04 07:33 51.25104 6.69059 2512 ft 219 kts 233°
2026-05-04 07:34 51.24125 6.66989 3077 ft 246 kts 230°
2026-05-04 07:34 51.22727 6.65358 3928 ft 256 kts 201°
2026-05-04 07:34 51.20954 6.65004 4915 ft 264 kts 173°
2026-05-04 07:34 51.19246 6.66104 5910 ft 272 kts 144°
2026-05-04 07:35 51.18066 6.68479 6858 ft 280 kts 114°
2026-05-04 07:35 51.17611 6.71524 7793 ft 286 kts 99°
2026-05-04 07:35 51.17347 6.74701 8734 ft 292 kts 99°
2026-05-04 07:35 51.17066 6.77936 9677 ft 298 kts 100°
2026-05-04 07:36 51.16748 6.81255 10438 ft 311 kts 101°
2026-05-04 07:36 51.16393 6.84762 10953 ft 330 kts 102°
2026-05-04 07:38 51.13534 7.11369 16829 ft 362 kts 102°
2026-05-04 07:38 51.13100 7.15335 17621 ft 366 kts 103°
2026-05-04 07:38 51.12664 7.19293 18381 ft 370 kts 103°
2026-05-04 07:38 51.12132 7.23307 19039 ft 371 kts 111°
2026-05-04 07:39 51.10991 7.26906 19879 ft 359 kts 131°
2026-05-04 07:39 51.09249 7.29598 20851 ft 343 kts 150°
2026-05-04 07:39 51.07240 7.31612 21690 ft 340 kts 154°
2026-05-04 07:39 51.05194 7.33527 22384 ft 343 kts 155°
2026-05-04 07:40 51.03128 7.35480 22849 ft 349 kts 154°
2026-05-04 07:40 51.01016 7.37496 23014 ft 351 kts 154°
2026-05-04 07:40 50.98961 7.39484 22826 ft 342 kts 154°
2026-05-04 07:40 50.96947 7.41437 22587 ft 338 kts 154°
2026-05-04 07:41 50.94944 7.43376 22307 ft 336 kts 154°
2026-05-04 07:41 50.92965 7.45295 21926 ft 332 kts 154°
2026-05-04 07:41 50.90998 7.47199 21511 ft 330 kts 154°
2026-05-04 07:41 50.89039 7.49094 21093 ft 329 kts 154°
2026-05-04 07:42 50.87090 7.50979 20692 ft 328 kts 154°
2026-05-04 07:42 50.85146 7.52858 20308 ft 326 kts 154°
2026-05-04 07:42 50.83217 7.54721 19932 ft 324 kts 154°
2026-05-04 07:42 50.81298 7.56570 19564 ft 323 kts 154°
2026-05-04 07:43 50.79384 7.58413 19194 ft 322 kts 154°
2026-05-04 07:43 50.77415 7.60061 18830 ft 318 kts 160°
2026-05-04 07:43 50.75383 7.61436 18467 ft 317 kts 162°
2026-05-04 07:43 50.73345 7.62781 18102 ft 317 kts 162°
2026-05-04 07:44 50.71309 7.64125 17723 ft 318 kts 161°
2026-05-04 07:44 50.69271 7.65474 17346 ft 317 kts 161°
2026-05-04 07:44 50.67237 7.66825 16982 ft 317 kts 161°
2026-05-04 07:44 50.65215 7.68167 16638 ft 315 kts 161°
2026-05-04 07:45 50.63196 7.69507 16309 ft 314 kts 161°
2026-05-04 07:45 50.61193 7.70836 15972 ft 312 kts 161°
2026-05-04 07:45 50.59195 7.72159 15658 ft 310 kts 160°
2026-05-04 07:45 50.57210 7.73471 15339 ft 309 kts 160°
2026-05-04 07:46 50.55227 7.74783 15011 ft 309 kts 160°
2026-05-04 07:46 50.53246 7.76092 14672 ft 309 kts 160°
2026-05-04 07:46 50.51266 7.77400 14340 ft 309 kts 160°
2026-05-04 07:46 50.49283 7.78708 14018 ft 309 kts 160°
2026-05-04 07:47 50.47303 7.80013 13682 ft 308 kts 160°
2026-05-04 07:47 50.45326 7.81312 13344 ft 308 kts 160°
2026-05-04 07:47 50.43402 7.82707 12985 ft 310 kts 154°
2026-05-04 07:49 50.31926 7.96861 11097 ft 294 kts 145°
2026-05-04 07:49 50.30324 7.98843 10803 ft 293 kts 145°
2026-05-04 07:49 50.28723 8.00822 10496 ft 293 kts 145°
2026-05-04 07:50 50.27128 8.02792 10204 ft 292 kts 145°
2026-05-04 07:50 50.25680 8.05028 9931 ft 294 kts 133°
2026-05-04 07:50 50.24433 8.07544 9746 ft 294 kts 130°
2026-05-04 07:50 50.23199 8.10091 9597 ft 294 kts 130°
2026-05-04 07:51 50.21958 8.12638 9470 ft 294 kts 131°
2026-05-04 07:51 50.20722 8.15163 9380 ft 293 kts 131°
2026-05-04 07:51 50.19499 8.17651 9293 ft 293 kts 131°
2026-05-04 07:51 50.18245 8.20195 9227 ft 291 kts 131°
2026-05-04 07:52 50.17008 8.22697 9162 ft 291 kts 131°
2026-05-04 07:52 50.15772 8.25194 9092 ft 290 kts 131°
2026-05-04 07:52 50.14554 8.27650 9002 ft 291 kts 131°
2026-05-04 07:52 50.13316 8.30147 8926 ft 291 kts 131°
2026-05-04 07:53 50.12079 8.32641 8844 ft 291 kts 131°
2026-05-04 07:54 50.13471 8.53451 8311 ft 300 kts 70°
2026-05-04 07:55 50.14207 8.56477 8231 ft 298 kts 70°
2026-05-04 07:55 50.14934 8.59504 8176 ft 298 kts 70°
2026-05-04 07:55 50.15660 8.62530 8112 ft 297 kts 70°
2026-05-04 07:55 50.16381 8.65552 8031 ft 297 kts 70°
2026-05-04 07:56 50.17103 8.68579 7946 ft 297 kts 70°
2026-05-04 07:56 50.17821 8.71592 7866 ft 297 kts 70°
2026-05-04 07:56 50.18535 8.74608 7800 ft 294 kts 70°
2026-05-04 07:56 50.19226 8.77551 7674 ft 285 kts 70°
2026-05-04 07:57 50.19907 8.80449 7572 ft 283 kts 71°
2026-05-04 07:57 50.20584 8.83333 7491 ft 283 kts 70°
2026-05-04 07:57 50.21261 8.86222 7418 ft 283 kts 70°
2026-05-04 07:57 50.21938 8.89107 7346 ft 282 kts 70°
2026-05-04 07:58 50.22613 8.91982 7282 ft 282 kts 71°
2026-05-04 07:58 50.23060 8.94936 7098 ft 279 kts 90°
2026-05-04 07:58 50.22748 8.97884 6876 ft 274 kts 114°
2026-05-04 07:58 50.21755 9.00359 6643 ft 267 kts 137°
2026-05-04 07:59 50.20283 9.02043 6401 ft 261 kts 158°
2026-05-04 07:59 50.19154 9.02631 6236 ft 258 kts 172°
2026-05-04 07:59 50.16878 9.02513 5904 ft 252 kts 198°
2026-05-04 07:59 50.15304 9.01390 5649 ft 249 kts 215°
2026-05-04 08:00 50.14224 8.99342 5399 ft 247 kts 248°
2026-05-04 08:00 50.13863 8.96727 5167 ft 248 kts 262°
2026-05-04 08:00 50.13680 8.94057 4996 ft 248 kts 261°
2026-05-04 08:02 50.10125 8.76600 3681 ft 228 kts 249°
2026-05-04 08:02 50.09579 8.74310 3380 ft 224 kts 249°
2026-05-04 08:02 50.09043 8.72064 3051 ft 219 kts 249°
2026-05-04 08:03 50.08518 8.69860 2740 ft 215 kts 249°
2026-05-04 08:03 50.08006 8.67715 2439 ft 208 kts 249°
2026-05-04 08:03 50.07513 8.65645 2153 ft 200 kts 249°
2026-05-04 08:03 50.07041 8.63670 1943 ft 189 kts 249°
2026-05-04 08:04 50.06597 8.61807 1653 ft 179 kts 249°
2026-05-04 08:04 50.06180 8.60061 1409 ft 167 kts 249°
2026-05-04 08:04 50.05785 8.58404 1130 ft 159 kts 249°
2026-05-04 08:04 50.05406 8.56842 871 ft 148 kts 248°
2026-05-04 08:05 50.05069 8.55398 686 ft 139 kts 249°
2026-05-04 08:05 50.04843 8.54454 574 ft 142 kts 249°
2026-05-04 08:05 50.04501 8.53024 369 ft 137 kts 249°
2026-05-04 08:05 50.04196 8.51757 351 ft 100 kts 250°
2026-05-04 08:06 50.04066 8.51215 332 ft 34 kts 248°
2026-05-04 08:06 50.04009 8.51045 334 ft 11 kts 225°
2026-05-04 08:06 50.03945 8.50965 331 ft 13 kts 218°
2026-05-04 08:06 50.03868 8.50873 331 ft 16 kts 218°
2026-05-04 08:08 50.03972 8.51716 349 ft 19 kts 72°
2026-05-04 08:08 50.04019 8.51917 347 ft 21 kts 73°
2026-05-04 08:10 50.04405 8.53641 381 ft 17 kts 89°
2026-05-04 08:11 50.04416 8.53826 381 ft 18 kts 86°
2026-05-04 08:11 50.04444 8.54250 381 ft 18 kts 86°
2026-05-04 08:11 50.04452 8.54419 376 ft 16 kts 89°
2026-05-04 08:12 50.04436 8.54570 372 ft 11 kts 112°
2026-05-04 08:12 50.04392 8.54680 370 ft 13 kts 131°
2026-05-04 08:12 50.04319 8.54768 364 ft 11 kts 151°
2026-05-04 08:12 50.04244 8.54815 358 ft 12 kts 162°
2026-05-04 08:13 50.04157 8.54863 363 ft 14 kts 161°
2026-05-04 08:13 50.04058 8.54919 357 ft 15 kts 162°
2026-05-04 08:13 50.03952 8.54982 357 ft 15 kts 160°
2026-05-04 08:13 50.03891 8.55018 361 ft 9 kts 159°
2026-05-04 08:14 50.03855 8.55102 357 ft 11 kts 91°
2026-05-04 08:14 50.03877 8.55233 357 ft 14 kts 69°
2026-05-04 08:14 50.03914 8.55384 359 ft 16 kts 71°
2026-05-04 08:16 50.04252 8.56231 363 ft 11 kts 339°
2026-05-04 08:16 50.04288 8.56173 363 ft 9 kts 276°
2026-05-04 08:16 50.04304 8.56085 363 ft 9 kts 316°
2026-05-04 08:17 50.04369 8.56039 366 ft 12 kts 341°
2026-05-04 08:17 50.04422 8.56031 361 ft 8 kts 35°
2026-05-04 08:17 50.04447 8.56093 365 ft 6 kts 71°
2026-05-04 08:17 50.04461 8.56155 363 ft 4 kts 71°
2026-05-04 08:19 50.04406 8.56222 361 ft 0 kts 161°